Location: Hylvaty SDH
(49.9612°N, 16.4057°E)
Time: 19:33:26
(UTC+02:00)

Transit 4A - Pass Details

Date: 17 August 2020
Orbit: 862 x 982 km, 66.8° (Epoch: 28 September)

Event Time Altitude Azimuth Distance (km) Brightness Sun altitude
Rises 15:43:24 0° 322° (NW) 3,640 11.0 40.2°
Reaches altitude 10° 15:46:07 10° 330° (NNW) 2,707 10.4 39.8°
Maximum altitude 15:52:06 42° 40° (NE) 1,372 8.8 39.0°
Drops below altitude 10° 15:58:08 10° 110° (ESE) 2,733 10.1 38.1°
Sets 16:00:53 0° 118° (ESE) 3,679 10.8 37.7°
